iso_date,Year,Hour,Min,DOY,POS_DOY,Lat,Lon,BP,Ts,Ta,has_bp,has_ts,has_ta,BuoyID,Buoy_Type,Buoy_Owner,Logistics,Hemisphere
2022-04-10T18:00:00Z,2022,18,0,100.75,100.75,57.127,-47.163,1012.4,3.21,-999.0,yes,yes,no,300234068347290,BD2VHI,AOML,BJARNI_SAEMUN,North
2022-04-10T21:00:00Z,2022,21,0,100.875,100.875,57.126,-47.16,1012.0,3.12,-999.0,yes,yes,no,300234068347290,BD2VHI,AOML,BJARNI_SAEMUN,North
2022-04-11T00:00:00Z,2022,0,0,101.0,101.0,57.123,-47.176,1011.9,3.11,-999.0,yes,yes,no,300234068347290,BD2VHI,AOML,BJARNI_SAEMUN,North
2022-04-11T03:00:00Z,2022,3,0,101.125,101.125,57.123,-47.192,1010.5,3.33,-999.0,yes,yes,no,300234068347290,BD2VHI,AOML,BJARNI_SAEMUN,North
2022-04-11T06:00:00Z,2022,6,0,101.25,101.25,57.122,-47.212,1009.7,3.13,-999.0,yes,yes,no,300234068347290,BD2VHI,AOML,BJARNI_SAEMUN,North
2022-04-11T09:00:00Z,2022,9,0,101.375,101.375,57.113,-47.24,1008.6,3.3,-999.0,yes,yes,no,300234068347290,BD2VHI,AOML,BJARNI_SAEMUN,North
2022-04-11T12:00:00Z,2022,12,0,101.5,101.5,57.099,-47.273,1007.2,3.26,-999.0,yes,yes,no,300234068347290,BD2VHI,AOML,BJARNI_SAEMUN,North
2022-04-11T15:00:00Z,2022,15,0,101.625,101.625,57.08,-47.317,1005.4,3.36,-999.0,yes,yes,no,300234068347290,BD2VHI,AOML,BJARNI_SAEMUN,North
2022-04-11T18:00:00Z,2022,18,0,101.75,101.75,57.048,-47.368,1002.4,3.27,-999.0,yes,yes,no,300234068347290,BD2VHI,AOML,BJARNI_SAEMUN,North
2022-04-11T21:00:00Z,2022,21,0,101.875,101.875,57.018,-47.414,999.1,3.23,-999.0,yes,yes,no,300234068347290,BD2VHI,AOML,BJARNI_SAEMUN,North
2022-04-12T00:00:00Z,2022,0,0,102.0,102.0,56.973,-47.459,998.0,3.25,-999.0,yes,yes,no,300234068347290,BD2VHI,AOML,BJARNI_SAEMUN,North
2022-04-12T03:00:00Z,2022,3,0,102.125,102.125,56.927,-47.528,996.1,3.22,-999.0,yes,yes,no,300234068347290,BD2VHI,AOML,BJARNI_SAEMUN,North
2022-04-12T06:00:00Z,2022,6,0,102.25,102.25,56.868,-47.618,994.0,3.14,-999.0,yes,yes,no,300234068347290,BD2VHI,AOML,BJARNI_SAEMUN,North
2022-04-12T09:00:00Z,2022,9,0,102.375,102.375,56.814,-47.73,994.6,3.2,-999.0,yes,yes,no,300234068347290,BD2VHI,AOML,BJARNI_SAEMUN,North
2022-04-12T12:00:00Z,2022,12,0,102.5,102.5,56.769,-47.852,995.8,3.23,-999.0,yes,yes,no,300234068347290,BD2VHI,AOML,BJARNI_SAEMUN,North
2022-04-12T15:00:00Z,2022,15,0,102.625,102.625,56.741,-47.974,996.1,3.14,-999.0,yes,yes,no,300234068347290,BD2VHI,AOML,BJARNI_SAEMUN,North
2022-04-12T18:00:00Z,2022,18,0,102.75,102.75,56.711,-48.078,996.0,3.22,-999.0,yes,yes,no,300234068347290,BD2VHI,AOML,BJARNI_SAEMUN,North
2022-04-12T21:00:00Z,2022,21,0,102.875,102.875,56.679,-48.181,996.7,3.25,-999.0,yes,yes,no,300234068347290,BD2VHI,AOML,BJARNI_SAEMUN,North
2022-04-13T00:00:00Z,2022,0,0,103.0,103.0,56.66,-48.274,998.2,3.2,-999.0,yes,yes,no,300234068347290,BD2VHI,AOML,BJARNI_SAEMUN,North
2022-04-13T01:56:03Z,2022,1,56,103.0806,103.0806,56.646,-48.328,998.1,3.14,-999.0,yes,yes,no,300234068347290,BD2VHI,AOML,BJARNI_SAEMUN,North
2022-04-13T03:00:00Z,2022,3,0,103.125,103.125,56.64,-48.35,998.0,3.15,-999.0,yes,yes,no,300234068347290,BD2VHI,AOML,BJARNI_SAEMUN,North
2022-04-13T06:00:00Z,2022,6,0,103.25,103.25,56.613,-48.388,997.3,3.19,-999.0,yes,yes,no,300234068347290,BD2VHI,AOML,BJARNI_SAEMUN,North
2022-04-13T09:00:00Z,2022,9,0,103.375,103.375,56.572,-48.419,997.3,3.19,-999.0,yes,yes,no,300234068347290,BD2VHI,AOML,BJARNI_SAEMUN,North
2022-04-13T12:00:00Z,2022,12,0,103.5,103.5,56.516,-48.449,997.6,3.25,-999.0,yes,yes,no,300234068347290,BD2VHI,AOML,BJARNI_SAEMUN,North
2022-04-13T15:00:00Z,2022,15,0,103.625,103.625,56.468,-48.462,997.1,3.17,-999.0,yes,yes,no,300234068347290,BD2VHI,AOML,BJARNI_SAEMUN,North
2022-04-13T18:00:00Z,2022,18,0,103.75,103.75,56.433,-48.477,996.9,3.16,-999.0,yes,yes,no,300234068347290,BD2VHI,AOML,BJARNI_SAEMUN,North
2022-04-13T21:00:00Z,2022,21,0,103.875,103.875,56.401,-48.49,997.4,3.17,-999.0,yes,yes,no,300234068347290,BD2VHI,AOML,BJARNI_SAEMUN,North
2022-04-14T00:00:00Z,2022,0,0,104.0,104.0,56.366,-48.471,999.2,3.12,-999.0,yes,yes,no,300234068347290,BD2VHI,AOML,BJARNI_SAEMUN,North
2022-04-14T03:00:00Z,2022,3,0,104.125,104.125,56.333,-48.452,1000.0,3.16,-999.0,yes,yes,no,300234068347290,BD2VHI,AOML,BJARNI_SAEMUN,North
2022-04-14T06:00:00Z,2022,6,0,104.25,104.25,56.307,-48.448,1000.7,3.13,-999.0,yes,yes,no,300234068347290,BD2VHI,AOML,BJARNI_SAEMUN,North
2022-04-14T09:00:00Z,2022,9,0,104.375,104.375,56.291,-48.459,1001.9,3.13,-999.0,yes,yes,no,300234068347290,BD2VHI,AOML,BJARNI_SAEMUN,North
2022-04-14T12:00:00Z,2022,12,0,104.5,104.5,56.277,-48.466,1003.0,3.13,-999.0,yes,yes,no,300234068347290,BD2VHI,AOML,BJARNI_SAEMUN,North
2022-04-14T15:00:00Z,2022,15,0,104.625,104.625,56.251,-48.439,1003.3,3.18,-999.0,yes,yes,no,300234068347290,BD2VHI,AOML,BJARNI_SAEMUN,North
2022-04-14T18:00:00Z,2022,18,0,104.75,104.75,56.223,-48.426,1003.8,3.19,-999.0,yes,yes,no,300234068347290,BD2VHI,AOML,BJARNI_SAEMUN,North
2022-04-14T21:00:00Z,2022,21,0,104.875,104.875,56.192,-48.419,1004.8,3.16,-999.0,yes,yes,no,300234068347290,BD2VHI,AOML,BJARNI_SAEMUN,North
2022-04-15T00:00:00Z,2022,0,0,105.0,105.0,56.173,-48.417,1005.3,3.15,-999.0,yes,yes,no,300234068347290,BD2VHI,AOML,BJARNI_SAEMUN,North
2022-04-15T03:00:00Z,2022,3,0,105.125,105.125,56.156,-48.405,1005.9,3.18,-999.0,yes,yes,no,300234068347290,BD2VHI,AOML,BJARNI_SAEMUN,North
2022-04-15T06:00:00Z,2022,6,0,105.25,105.25,56.13,-48.373,1006.2,3.16,-999.0,yes,yes,no,300234068347290,BD2VHI,AOML,BJARNI_SAEMUN,North
2022-04-15T09:00:00Z,2022,9,0,105.375,105.375,56.096,-48.349,1007.0,3.16,-999.0,yes,yes,no,300234068347290,BD2VHI,AOML,BJARNI_SAEMUN,North
2022-04-15T12:00:00Z,2022,12,0,105.5,105.5,56.069,-48.309,1007.8,3.17,-999.0,yes,yes,no,300234068347290,BD2VHI,AOML,BJARNI_SAEMUN,North
2022-04-15T15:00:00Z,2022,15,0,105.625,105.625,56.05,-48.254,1007.5,3.18,-999.0,yes,yes,no,300234068347290,BD2VHI,AOML,BJARNI_SAEMUN,North
2022-04-15T18:00:00Z,2022,18,0,105.75,105.75,56.036,-48.197,1007.4,3.16,-999.0,yes,yes,no,300234068347290,BD2VHI,AOML,BJARNI_SAEMUN,North
2022-04-15T21:00:00Z,2022,21,0,105.875,105.875,56.024,-48.132,1007.5,3.11,-999.0,yes,yes,no,300234068347290,BD2VHI,AOML,BJARNI_SAEMUN,North
2022-04-16T00:00:00Z,2022,0,0,106.0,106.0,56.009,-48.054,1007.9,3.12,-999.0,yes,yes,no,300234068347290,BD2VHI,AOML,BJARNI_SAEMUN,North
2022-04-16T03:00:00Z,2022,3,0,106.125,106.125,55.986,-47.953,1008.1,3.06,-999.0,yes,yes,no,300234068347290,BD2VHI,AOML,BJARNI_SAEMUN,North
2022-04-16T06:00:00Z,2022,6,0,106.25,106.25,55.953,-47.869,1009.0,3.06,-999.0,yes,yes,no,300234068347290,BD2VHI,AOML,BJARNI_SAEMUN,North
2022-04-16T09:00:00Z,2022,9,0,106.375,106.375,55.923,-47.815,1009.9,3.14,-999.0,yes,yes,no,300234068347290,BD2VHI,AOML,BJARNI_SAEMUN,North
2022-04-16T12:00:00Z,2022,12,0,106.5,106.5,55.898,-47.762,1010.7,3.12,-999.0,yes,yes,no,300234068347290,BD2VHI,AOML,BJARNI_SAEMUN,North
2022-04-16T15:00:00Z,2022,15,0,106.625,106.625,55.873,-47.705,1010.8,3.14,-999.0,yes,yes,no,300234068347290,BD2VHI,AOML,BJARNI_SAEMUN,North
2022-04-16T18:00:00Z,2022,18,0,106.75,106.75,55.848,-47.661,1010.7,3.18,-999.0,yes,yes,no,300234068347290,BD2VHI,AOML,BJARNI_SAEMUN,North
2022-04-16T21:00:00Z,2022,21,0,106.875,106.875,55.826,-47.633,1010.9,3.21,-999.0,yes,yes,no,300234068347290,BD2VHI,AOML,BJARNI_SAEMUN,North
2022-04-17T00:00:00Z,2022,0,0,107.0,107.0,55.822,-47.617,1010.5,3.17,-999.0,yes,yes,no,300234068347290,BD2VHI,AOML,BJARNI_SAEMUN,North
2022-04-17T03:00:00Z,2022,3,0,107.125,107.125,55.826,-47.586,1010.2,3.16,-999.0,yes,yes,no,300234068347290,BD2VHI,AOML,BJARNI_SAEMUN,North
2022-04-17T06:00:00Z,2022,6,0,107.25,107.25,55.833,-47.562,1008.3,3.15,-999.0,yes,yes,no,300234068347290,BD2VHI,AOML,BJARNI_SAEMUN,North
2022-04-17T09:00:00Z,2022,9,0,107.375,107.375,55.839,-47.55,1006.5,3.15,-999.0,yes,yes,no,300234068347290,BD2VHI,AOML,BJARNI_SAEMUN,North
2022-04-17T12:00:00Z,2022,12,0,107.5,107.5,55.843,-47.523,1006.7,3.15,-999.0,yes,yes,no,300234068347290,BD2VHI,AOML,BJARNI_SAEMUN,North
2022-04-17T15:00:00Z,2022,15,0,107.625,107.625,55.838,-47.446,1009.9,3.11,-999.0,yes,yes,no,300234068347290,BD2VHI,AOML,BJARNI_SAEMUN,North
2022-04-17T18:00:00Z,2022,18,0,107.75,107.75,55.832,-47.37,1012.6,3.16,-999.0,yes,yes,no,300234068347290,BD2VHI,AOML,BJARNI_SAEMUN,North
2022-04-17T21:00:00Z,2022,21,0,107.875,107.875,55.824,-47.309,1015.2,3.18,-999.0,yes,yes,no,300234068347290,BD2VHI,AOML,BJARNI_SAEMUN,North
2022-04-18T00:00:00Z,2022,0,0,108.0,108.0,55.831,-47.262,1016.1,3.16,-999.0,yes,yes,no,300234068347290,BD2VHI,AOML,BJARNI_SAEMUN,North
2022-04-18T03:00:00Z,2022,3,0,108.125,108.125,55.84,-47.223,1015.7,3.16,-999.0,yes,yes,no,300234068347290,BD2VHI,AOML,BJARNI_SAEMUN,North
2022-04-18T06:00:00Z,2022,6,0,108.25,108.25,55.85,-47.209,1012.6,3.15,-999.0,yes,yes,no,300234068347290,BD2VHI,AOML,BJARNI_SAEMUN,North
2022-04-18T09:00:00Z,2022,9,0,108.375,108.375,55.861,-47.249,1007.7,3.16,-999.0,yes,yes,no,300234068347290,BD2VHI,AOML,BJARNI_SAEMUN,North
2022-04-18T12:00:00Z,2022,12,0,108.5,108.5,55.869,-47.308,1002.8,3.16,-999.0,yes,yes,no,300234068347290,BD2VHI,AOML,BJARNI_SAEMUN,North
2022-04-18T15:00:00Z,2022,15,0,108.625,108.625,55.88,-47.341,998.4,3.16,-999.0,yes,yes,no,300234068347290,BD2VHI,AOML,BJARNI_SAEMUN,North
2022-04-18T18:00:00Z,2022,18,0,108.75,108.75,55.898,-47.335,995.2,3.18,-999.0,yes,yes,no,300234068347290,BD2VHI,AOML,BJARNI_SAEMUN,North
2022-04-18T21:00:00Z,2022,21,0,108.875,108.875,55.913,-47.317,993.6,3.2,-999.0,yes,yes,no,300234068347290,BD2VHI,AOML,BJARNI_SAEMUN,North
2022-04-19T00:00:00Z,2022,0,0,109.0,109.0,55.92,-47.299,991.7,3.17,-999.0,yes,yes,no,300234068347290,BD2VHI,AOML,BJARNI_SAEMUN,North
2022-04-19T03:00:00Z,2022,3,0,109.125,109.125,55.924,-47.283,988.4,3.17,-999.0,yes,yes,no,300234068347290,BD2VHI,AOML,BJARNI_SAEMUN,North
2022-04-19T06:00:00Z,2022,6,0,109.25,109.25,55.909,-47.268,992.9,3.17,-999.0,yes,yes,no,300234068347290,BD2VHI,AOML,BJARNI_SAEMUN,North
2022-04-19T09:00:00Z,2022,9,0,109.375,109.375,55.837,-47.195,1003.3,3.13,-999.0,yes,yes,no,300234068347290,BD2VHI,AOML,BJARNI_SAEMUN,North
2022-04-19T12:00:00Z,2022,12,0,109.5,109.5,55.762,-47.104,1011.4,3.09,-999.0,yes,yes,no,300234068347290,BD2VHI,AOML,BJARNI_SAEMUN,North
2022-04-19T15:00:00Z,2022,15,0,109.625,109.625,55.694,-47.02,1018.0,3.13,-999.0,yes,yes,no,300234068347290,BD2VHI,AOML,BJARNI_SAEMUN,North
2022-04-19T18:00:00Z,2022,18,0,109.75,109.75,55.642,-46.941,1023.0,3.17,-999.0,yes,yes,no,300234068347290,BD2VHI,AOML,BJARNI_SAEMUN,North
2022-04-19T21:00:00Z,2022,21,0,109.875,109.875,55.6,-46.859,1027.7,3.19,-999.0,yes,yes,no,300234068347290,BD2VHI,AOML,BJARNI_SAEMUN,North
2022-04-20T00:00:00Z,2022,0,0,110.0,110.0,55.554,-46.782,1030.5,3.06,-999.0,yes,yes,no,300234068347290,BD2VHI,AOML,BJARNI_SAEMUN,North
2022-04-20T03:00:00Z,2022,3,0,110.125,110.125,55.5,-46.721,1031.4,3.07,-999.0,yes,yes,no,300234068347290,BD2VHI,AOML,BJARNI_SAEMUN,North
2022-04-20T06:00:00Z,2022,6,0,110.25,110.25,55.461,-46.679,1032.4,3.09,-999.0,yes,yes,no,300234068347290,BD2VHI,AOML,BJARNI_SAEMUN,North
2022-04-20T09:00:00Z,2022,9,0,110.375,110.375,55.439,-46.667,1032.9,3.08,-999.0,yes,yes,no,300234068347290,BD2VHI,AOML,BJARNI_SAEMUN,North
2022-04-20T12:00:00Z,2022,12,0,110.5,110.5,55.429,-46.662,1032.7,3.1,-999.0,yes,yes,no,300234068347290,BD2VHI,AOML,BJARNI_SAEMUN,North
2022-04-20T15:00:00Z,2022,15,0,110.625,110.625,55.42,-46.652,1031.2,3.14,-999.0,yes,yes,no,300234068347290,BD2VHI,AOML,BJARNI_SAEMUN,North
2022-04-20T18:00:00Z,2022,18,0,110.75,110.75,55.418,-46.655,1028.4,3.21,-999.0,yes,yes,no,300234068347290,BD2VHI,AOML,BJARNI_SAEMUN,North
2022-04-20T21:00:00Z,2022,21,0,110.875,110.875,55.437,-46.684,1025.4,3.17,-999.0,yes,yes,no,300234068347290,BD2VHI,AOML,BJARNI_SAEMUN,North
2022-04-21T00:00:00Z,2022,0,0,111.0,111.0,55.476,-46.707,1021.8,3.13,-999.0,yes,yes,no,300234068347290,BD2VHI,AOML,BJARNI_SAEMUN,North
2022-04-21T03:00:00Z,2022,3,0,111.125,111.125,55.518,-46.701,1018.5,3.12,-999.0,yes,yes,no,300234068347290,BD2VHI,AOML,BJARNI_SAEMUN,North
2022-04-21T06:00:00Z,2022,6,0,111.25,111.25,55.543,-46.682,1015.9,3.09,-999.0,yes,yes,no,300234068347290,BD2VHI,AOML,BJARNI_SAEMUN,North
2022-04-21T09:00:00Z,2022,9,0,111.375,111.375,55.56,-46.664,1014.3,3.1,-999.0,yes,yes,no,300234068347290,BD2VHI,AOML,BJARNI_SAEMUN,North
2022-04-21T12:00:00Z,2022,12,0,111.5,111.5,55.569,-46.656,1014.6,3.12,-999.0,yes,yes,no,300234068347290,BD2VHI,AOML,BJARNI_SAEMUN,North
2022-04-21T15:00:00Z,2022,15,0,111.625,111.625,55.573,-46.632,1014.5,3.16,-999.0,yes,yes,no,300234068347290,BD2VHI,AOML,BJARNI_SAEMUN,North
2022-04-21T18:00:00Z,2022,18,0,111.75,111.75,55.572,-46.597,1014.7,3.17,-999.0,yes,yes,no,300234068347290,BD2VHI,AOML,BJARNI_SAEMUN,North
2022-04-21T21:00:00Z,2022,21,0,111.875,111.875,55.567,-46.571,1015.6,3.16,-999.0,yes,yes,no,300234068347290,BD2VHI,AOML,BJARNI_SAEMUN,North
2022-04-22T00:00:00Z,2022,0,0,112.0,112.0,55.557,-46.55,1016.8,3.16,-999.0,yes,yes,no,300234068347290,BD2VHI,AOML,BJARNI_SAEMUN,North
2022-04-22T03:00:00Z,2022,3,0,112.125,112.125,55.542,-46.525,1017.6,3.12,-999.0,yes,yes,no,300234068347290,BD2VHI,AOML,BJARNI_SAEMUN,North
2022-04-22T06:00:00Z,2022,6,0,112.25,112.25,55.522,-46.499,1018.7,3.14,-999.0,yes,yes,no,300234068347290,BD2VHI,AOML,BJARNI_SAEMUN,North
2022-04-22T09:00:00Z,2022,9,0,112.375,112.375,55.503,-46.475,1019.8,3.13,-999.0,yes,yes,no,300234068347290,BD2VHI,AOML,BJARNI_SAEMUN,North
2022-04-22T12:00:00Z,2022,12,0,112.5,112.5,55.491,-46.46,1020.7,3.17,-999.0,yes,yes,no,300234068347290,BD2VHI,AOML,BJARNI_SAEMUN,North
2022-04-22T15:00:00Z,2022,15,0,112.625,112.625,55.476,-46.441,1021.0,3.19,-999.0,yes,yes,no,300234068347290,BD2VHI,AOML,BJARNI_SAEMUN,North
2022-04-22T18:00:00Z,2022,18,0,112.75,112.75,55.454,-46.405,1021.7,3.16,-999.0,yes,yes,no,300234068347290,BD2VHI,AOML,BJARNI_SAEMUN,North
2022-04-22T21:00:00Z,2022,21,0,112.875,112.875,55.438,-46.372,1022.7,3.21,-999.0,yes,yes,no,300234068347290,BD2VHI,AOML,BJARNI_SAEMUN,North
2022-04-23T00:00:00Z,2022,0,0,113.0,113.0,55.43,-46.367,1024.1,3.21,-999.0,yes,yes,no,300234068347290,BD2VHI,AOML,BJARNI_SAEMUN,North
2022-04-23T03:00:00Z,2022,3,0,113.125,113.125,55.421,-46.373,1024.1,3.21,-999.0,yes,yes,no,300234068347290,BD2VHI,AOML,BJARNI_SAEMUN,North
2022-04-23T06:00:00Z,2022,6,0,113.25,113.25,55.413,-46.38,1025.0,3.23,-999.0,yes,yes,no,300234068347290,BD2VHI,AOML,BJARNI_SAEMUN,North
2022-04-23T09:00:00Z,2022,9,0,113.375,113.375,55.415,-46.397,1026.1,3.19,-999.0,yes,yes,no,300234068347290,BD2VHI,AOML,BJARNI_SAEMUN,North
2022-04-23T12:00:00Z,2022,12,0,113.5,113.5,55.423,-46.423,1027.1,3.23,-999.0,yes,yes,no,300234068347290,BD2VHI,AOML,BJARNI_SAEMUN,North
2022-04-23T15:00:00Z,2022,15,0,113.625,113.625,55.43,-46.441,1027.2,3.38,-999.0,yes,yes,no,300234068347290,BD2VHI,AOML,BJARNI_SAEMUN,North
2022-04-23T18:00:00Z,2022,18,0,113.75,113.75,55.432,-46.46,1027.6,3.35,-999.0,yes,yes,no,300234068347290,BD2VHI,AOML,BJARNI_SAEMUN,North
2022-04-23T21:00:00Z,2022,21,0,113.875,113.875,55.428,-46.488,1027.9,3.25,-999.0,yes,yes,no,300234068347290,BD2VHI,AOML,BJARNI_SAEMUN,North
2022-04-24T00:00:00Z,2022,0,0,114.0,114.0,55.427,-46.528,1029.0,3.22,-999.0,yes,yes,no,300234068347290,BD2VHI,AOML,BJARNI_SAEMUN,North
2022-04-24T03:00:00Z,2022,3,0,114.125,114.125,55.433,-46.558,1028.6,3.21,-999.0,yes,yes,no,300234068347290,BD2VHI,AOML,BJARNI_SAEMUN,North
2022-04-24T06:00:00Z,2022,6,0,114.25,114.25,55.439,-46.582,1028.8,3.18,-999.0,yes,yes,no,300234068347290,BD2VHI,AOML,BJARNI_SAEMUN,North
2022-04-24T09:00:00Z,2022,9,0,114.375,114.375,55.441,-46.593,1029.6,3.17,-999.0,yes,yes,no,300234068347290,BD2VHI,AOML,BJARNI_SAEMUN,North
2022-04-24T12:00:00Z,2022,12,0,114.5,114.5,55.431,-46.608,1030.5,3.19,-999.0,yes,yes,no,300234068347290,BD2VHI,AOML,BJARNI_SAEMUN,North
2022-04-24T15:00:00Z,2022,15,0,114.625,114.625,55.425,-46.64,1031.3,3.33,-999.0,yes,yes,no,300234068347290,BD2VHI,AOML,BJARNI_SAEMUN,North
2022-04-24T18:00:00Z,2022,18,0,114.75,114.75,55.431,-46.679,1031.6,3.5,-999.0,yes,yes,no,300234068347290,BD2VHI,AOML,BJARNI_SAEMUN,North
2022-04-24T21:00:00Z,2022,21,0,114.875,114.875,55.438,-46.697,1032.7,3.59,-999.0,yes,yes,no,300234068347290,BD2VHI,AOML,BJARNI_SAEMUN,North
2022-04-25T00:00:00Z,2022,0,0,115.0,115.0,55.434,-46.702,1033.6,3.45,-999.0,yes,yes,no,300234068347290,BD2VHI,AOML,BJARNI_SAEMUN,North
2022-04-25T03:00:00Z,2022,3,0,115.125,115.125,55.424,-46.727,1033.3,3.48,-999.0,yes,yes,no,300234068347290,BD2VHI,AOML,BJARNI_SAEMUN,North
2022-04-25T06:00:00Z,2022,6,0,115.25,115.25,55.418,-46.77,1032.8,3.46,-999.0,yes,yes,no,300234068347290,BD2VHI,AOML,BJARNI_SAEMUN,North
2022-04-25T09:00:00Z,2022,9,0,115.375,115.375,55.419,-46.796,1033.3,3.46,-999.0,yes,yes,no,300234068347290,BD2VHI,AOML,BJARNI_SAEMUN,North
2022-04-25T12:00:00Z,2022,12,0,115.5,115.5,55.407,-46.797,1033.2,3.4,-999.0,yes,yes,no,300234068347290,BD2VHI,AOML,BJARNI_SAEMUN,North
2022-04-25T15:00:00Z,2022,15,0,115.625,115.625,55.385,-46.826,1032.5,3.44,-999.0,yes,yes,no,300234068347290,BD2VHI,AOML,BJARNI_SAEMUN,North
2022-04-25T18:00:00Z,2022,18,0,115.75,115.75,55.37,-46.878,1031.7,3.53,-999.0,yes,yes,no,300234068347290,BD2VHI,AOML,BJARNI_SAEMUN,North
2022-04-25T21:00:00Z,2022,21,0,115.875,115.875,55.356,-46.927,1030.7,3.45,-999.0,yes,yes,no,300234068347290,BD2VHI,AOML,BJARNI_SAEMUN,North
2022-04-26T00:00:00Z,2022,0,0,116.0,116.0,55.346,-46.963,1030.1,3.41,-999.0,yes,yes,no,300234068347290,BD2VHI,AOML,BJARNI_SAEMUN,North
2022-04-26T03:00:00Z,2022,3,0,116.125,116.125,55.328,-47.0,1029.0,3.4,-999.0,yes,yes,no,300234068347290,BD2VHI,AOML,BJARNI_SAEMUN,North
2022-04-26T06:00:00Z,2022,6,0,116.25,116.25,55.308,-47.051,1027.0,3.42,-999.0,yes,yes,no,300234068347290,BD2VHI,AOML,BJARNI_SAEMUN,North
2022-04-26T09:00:00Z,2022,9,0,116.375,116.375,55.293,-47.112,1026.9,3.41,-999.0,yes,yes,no,300234068347290,BD2VHI,AOML,BJARNI_SAEMUN,North
2022-04-26T12:00:00Z,2022,12,0,116.5,116.5,55.285,-47.145,1025.8,3.49,-999.0,yes,yes,no,300234068347290,BD2VHI,AOML,BJARNI_SAEMUN,North
2022-04-26T15:00:00Z,2022,15,0,116.625,116.625,55.279,-47.174,1024.1,3.58,-999.0,yes,yes,no,300234068347290,BD2VHI,AOML,BJARNI_SAEMUN,North
2022-04-26T18:00:00Z,2022,18,0,116.75,116.75,55.28,-47.211,1022.4,3.7,-999.0,yes,yes,no,300234068347290,BD2VHI,AOML,BJARNI_SAEMUN,North
2022-04-26T21:00:00Z,2022,21,0,116.875,116.875,55.285,-47.236,1021.3,3.63,-999.0,yes,yes,no,300234068347290,BD2VHI,AOML,BJARNI_SAEMUN,North
2022-04-27T00:00:00Z,2022,0,0,117.0,117.0,55.294,-47.263,1020.7,3.59,-999.0,yes,yes,no,300234068347290,BD2VHI,AOML,BJARNI_SAEMUN,North
2022-04-27T03:00:00Z,2022,3,0,117.125,117.125,55.316,-47.279,1019.1,3.55,-999.0,yes,yes,no,300234068347290,BD2VHI,AOML,BJARNI_SAEMUN,North
2022-04-27T06:00:00Z,2022,6,0,117.25,117.25,55.343,-47.288,1017.8,3.49,-999.0,yes,yes,no,300234068347290,BD2VHI,AOML,BJARNI_SAEMUN,North
2022-04-27T09:00:00Z,2022,9,0,117.375,117.375,55.358,-47.307,1017.7,3.47,-999.0,yes,yes,no,300234068347290,BD2VHI,AOML,BJARNI_SAEMUN,North
2022-04-27T12:00:00Z,2022,12,0,117.5,117.5,55.361,-47.354,1017.8,3.36,-999.0,yes,yes,no,300234068347290,BD2VHI,AOML,BJARNI_SAEMUN,North
2022-04-27T15:00:00Z,2022,15,0,117.625,117.625,55.361,-47.396,1017.6,3.48,-999.0,yes,yes,no,300234068347290,BD2VHI,AOML,BJARNI_SAEMUN,North
2022-04-27T18:00:00Z,2022,18,0,117.75,117.75,55.362,-47.435,1017.0,3.67,-999.0,yes,yes,no,300234068347290,BD2VHI,AOML,BJARNI_SAEMUN,North
2022-04-27T21:00:00Z,2022,21,0,117.875,117.875,55.361,-47.466,1017.0,3.8,-999.0,yes,yes,no,300234068347290,BD2VHI,AOML,BJARNI_SAEMUN,North
2022-04-28T00:00:00Z,2022,0,0,118.0,118.0,55.347,-47.507,1017.4,3.65,-999.0,yes,yes,no,300234068347290,BD2VHI,AOML,BJARNI_SAEMUN,North
2022-04-28T03:00:00Z,2022,3,0,118.125,118.125,55.342,-47.555,1017.1,3.61,-999.0,yes,yes,no,300234068347290,BD2VHI,AOML,BJARNI_SAEMUN,North
2022-04-28T06:00:00Z,2022,6,0,118.25,118.25,55.346,-47.597,1017.0,3.58,-999.0,yes,yes,no,300234068347290,BD2VHI,AOML,BJARNI_SAEMUN,North
2022-04-28T09:00:00Z,2022,9,0,118.375,118.375,55.356,-47.628,1016.8,3.56,-999.0,yes,yes,no,300234068347290,BD2VHI,AOML,BJARNI_SAEMUN,North
2022-04-28T12:00:00Z,2022,12,0,118.5,118.5,55.352,-47.638,1016.9,3.58,-999.0,yes,yes,no,300234068347290,BD2VHI,AOML,BJARNI_SAEMUN,North
2022-04-28T15:00:00Z,2022,15,0,118.625,118.625,55.336,-47.656,1017.0,3.64,-999.0,yes,yes,no,300234068347290,BD2VHI,AOML,BJARNI_SAEMUN,North
2022-04-28T18:00:00Z,2022,18,0,118.75,118.75,55.327,-47.693,1016.6,3.76,-999.0,yes,yes,no,300234068347290,BD2VHI,AOML,BJARNI_SAEMUN,North
2022-04-28T21:00:00Z,2022,21,0,118.875,118.875,55.322,-47.736,1016.8,3.71,-999.0,yes,yes,no,300234068347290,BD2VHI,AOML,BJARNI_SAEMUN,North
2022-04-29T00:00:00Z,2022,0,0,119.0,119.0,55.324,-47.763,1017.5,3.69,-999.0,yes,yes,no,300234068347290,BD2VHI,AOML,BJARNI_SAEMUN,North
2022-04-29T03:00:00Z,2022,3,0,119.125,119.125,55.331,-47.771,1017.8,3.65,-999.0,yes,yes,no,300234068347290,BD2VHI,AOML,BJARNI_SAEMUN,North
2022-04-29T06:00:00Z,2022,6,0,119.25,119.25,55.336,-47.781,1017.7,3.56,-999.0,yes,yes,no,300234068347290,BD2VHI,AOML,BJARNI_SAEMUN,North
2022-04-29T09:00:00Z,2022,9,0,119.375,119.375,55.333,-47.795,1018.4,3.61,-999.0,yes,yes,no,300234068347290,BD2VHI,AOML,BJARNI_SAEMUN,North
2022-04-29T12:00:00Z,2022,12,0,119.5,119.5,55.333,-47.818,1018.9,3.63,-999.0,yes,yes,no,300234068347290,BD2VHI,AOML,BJARNI_SAEMUN,North
2022-04-29T15:00:00Z,2022,15,0,119.625,119.625,55.341,-47.837,1018.9,3.67,-999.0,yes,yes,no,300234068347290,BD2VHI,AOML,BJARNI_SAEMUN,North
2022-04-29T18:00:00Z,2022,18,0,119.75,119.75,55.348,-47.85,1018.7,3.68,-999.0,yes,yes,no,300234068347290,BD2VHI,AOML,BJARNI_SAEMUN,North
2022-04-29T21:00:00Z,2022,21,0,119.875,119.875,55.354,-47.875,1018.4,3.63,-999.0,yes,yes,no,300234068347290,BD2VHI,AOML,BJARNI_SAEMUN,North
2022-04-30T00:00:00Z,2022,0,0,120.0,120.0,55.356,-47.905,1018.5,3.55,-999.0,yes,yes,no,300234068347290,BD2VHI,AOML,BJARNI_SAEMUN,North
2022-04-30T03:00:00Z,2022,3,0,120.125,120.125,55.355,-47.945,1017.9,3.62,-999.0,yes,yes,no,300234068347290,BD2VHI,AOML,BJARNI_SAEMUN,North
2022-04-30T06:00:00Z,2022,6,0,120.25,120.25,55.34,-48.022,1017.3,3.54,-999.0,yes,yes,no,300234068347290,BD2VHI,AOML,BJARNI_SAEMUN,North
2022-04-30T09:00:00Z,2022,9,0,120.375,120.375,55.326,-48.111,1017.3,3.5,-999.0,yes,yes,no,300234068347290,BD2VHI,AOML,BJARNI_SAEMUN,North
2022-04-30T12:00:00Z,2022,12,0,120.5,120.5,55.312,-48.188,1017.1,3.5,-999.0,yes,yes,no,300234068347290,BD2VHI,AOML,BJARNI_SAEMUN,North
2022-04-30T15:00:00Z,2022,15,0,120.625,120.625,55.293,-48.228,1016.0,3.66,-999.0,yes,yes,no,300234068347290,BD2VHI,AOML,BJARNI_SAEMUN,North
2022-04-30T18:00:00Z,2022,18,0,120.75,120.75,55.269,-48.243,1014.8,3.49,-999.0,yes,yes,no,300234068347290,BD2VHI,AOML,BJARNI_SAEMUN,North
2022-04-30T21:00:00Z,2022,21,0,120.875,120.875,55.242,-48.279,1014.0,3.56,-999.0,yes,yes,no,300234068347290,BD2VHI,AOML,BJARNI_SAEMUN,North
2022-05-01T00:00:00Z,2022,0,0,121.0,121.0,55.22,-48.34,1013.5,3.69,-999.0,yes,yes,no,300234068347290,BD2VHI,AOML,BJARNI_SAEMUN,North
2022-05-01T03:00:00Z,2022,3,0,121.125,121.125,55.197,-48.386,1012.2,3.57,-999.0,yes,yes,no,300234068347290,BD2VHI,AOML,BJARNI_SAEMUN,North
2022-05-01T06:00:00Z,2022,6,0,121.25,121.25,55.176,-48.434,1010.7,3.59,-999.0,yes,yes,no,300234068347290,BD2VHI,AOML,BJARNI_SAEMUN,North
2022-05-01T09:00:00Z,2022,9,0,121.375,121.375,55.159,-48.504,1009.9,3.55,-999.0,yes,yes,no,300234068347290,BD2VHI,AOML,BJARNI_SAEMUN,North
2022-05-01T12:00:00Z,2022,12,0,121.5,121.5,55.139,-48.566,1009.7,3.64,-999.0,yes,yes,no,300234068347290,BD2VHI,AOML,BJARNI_SAEMUN,North
2022-05-01T15:00:00Z,2022,15,0,121.625,121.625,55.097,-48.589,1009.2,3.52,-999.0,yes,yes,no,300234068347290,BD2VHI,AOML,BJARNI_SAEMUN,North
2022-05-01T18:00:00Z,2022,18,0,121.75,121.75,55.065,-48.611,1009.0,3.57,-999.0,yes,yes,no,300234068347290,BD2VHI,AOML,BJARNI_SAEMUN,North
2022-05-01T21:00:00Z,2022,21,0,121.875,121.875,55.045,-48.626,1008.9,3.58,-999.0,yes,yes,no,300234068347290,BD2VHI,AOML,BJARNI_SAEMUN,North
2022-05-02T00:00:00Z,2022,0,0,122.0,122.0,55.026,-48.621,1009.9,3.57,-999.0,yes,yes,no,300234068347290,BD2VHI,AOML,BJARNI_SAEMUN,North
2022-05-02T03:00:00Z,2022,3,0,122.125,122.125,55.01,-48.606,1011.3,3.56,-999.0,yes,yes,no,300234068347290,BD2VHI,AOML,BJARNI_SAEMUN,North